CW3643 Weather Reports


Display with metric or nautical units.
time (UTC)temp
F
wind
direction
speed
MPH
gust
MPH
rain 1hr
in
rain 24hr
in
rain mn
in
humidity
%
barometer
mb
20260507060514 55 286 1.0 3.0 0.00 0.00 0.00 82 1010.8
20260507055511 55 284 0.0 5.0 0.00 0.00 0.00 81 1010.7
20260507055018 55 284 2.0 5.0 0.00 0.00 0.00 81 1010.6
20260507054516 55 284 2.0 7.0 0.00 0.00 0.00 81 1010.6
20260507054018 55 353 4.0 7.0 0.00 0.00 0.00 81 1010.5
20260507053515 55 321 2.0 5.0 0.00 0.00 0.00 81 1010.5
20260507052518 55 19 5.0 9.0 0.00 0.00 0.00 81 1010.5
20260507052050 55 321 5.0 9.0 0.00 0.00 0.00 81 1010.5
20260507051513 55 305 3.0 8.0 0.00 0.00 0.00 81 1010.3
20260507051019 55 320 4.0 8.0 0.00 0.00 0.00 81 1010.3
20260507050523 55 338 2.0 7.0 0.00 0.00 0.00 81 1010.3
20260507050021 55 293 4.0 7.0 0.00 0.00 0.00 81 1010.4
20260507045516 55 316 1.0 8.0 0.00 0.00 0.00 81 1010.4
20260507045021 55 28 3.0 12.0 0.00 0.00 0.00 81 1010.3
20260507044524 55 288 7.0 12.0 0.00 0.00 0.00 81 1010.3
20260507044048 55 341 3.0 15.0 0.00 0.00 0.00 81 1010.4
20260507043533 55 335 6.0 14.0 0.00 0.00 0.00 81 1010.3
20260507043036 55 24 7.0 10.0 0.00 0.00 0.00 81 1010.3
20260507042527 55 353 4.0 11.0 0.00 0.00 0.00 81 1010.4
20260507042031 55 14 3.0 11.0 0.00 0.00 0.00 81 1010.4
20260507041548 55 1 7.0 11.0 0.00 0.00 0.00 81 1010.4
20260507041032 55 344 4.0 10.0 0.00 0.00 0.00 81 1010.4
20260507040537 55 37 4.0 10.0 0.00 0.00 0.00 82 1010.4
20260507040013 55 7 2.0 9.0 0.00 0.00 0.00 82 1010.5
20260507035530 55 42 6.0 8.0 0.00 0.00 0.00 82 1010.5
20260507035028 55 28 4.0 10.0 0.00 0.00 0.00 81 1010.7
20260507034017 55 22 4.0 10.0 0.00 0.00 0.00 81 1010.6
20260507033530 55 1 3.0 12.0 0.00 0.00 0.00 81 1010.7
20260507033035 55 308 5.0 11.0 0.00 0.00 0.00 81 1010.7
20260507032524 55 26 4.0 11.0 0.00 0.00 0.00 81 1010.7
20260507032030 55 3 5.0 11.0 0.00 0.00 0.00 81 1010.8
20260507031526 55 295 5.0 10.0 0.00 0.00 0.00 81 1010.8
20260507031051 55 46 4.0 11.0 0.00 0.00 0.00 81 1010.8
20260507030528 55 347 4.0 13.0 0.00 0.00 0.00 81 1010.9
20260507030033 55 276 6.0 13.0 0.00 0.00 0.00 81 1010.8
20260507025522 55 326 6.0 16.0 0.00 0.00 0.00 81 1010.8
20260507025020 56 59 5.0 16.0 0.00 0.00 0.00 80 1010.8
20260507024525 56 313 8.0 15.0 0.00 0.00 0.00 80 1010.7
20260507024043 56 355 7.0 16.0 0.00 0.00 0.00 80 1010.8
20260507023547 56 330 8.0 16.0 0.00 0.00 0.00 80 1010.8
20260507023010 56 342 6.0 13.0 0.00 0.00 0.00 80 1010.8
20260507022520 56 357 7.0 14.0 0.00 0.00 0.00 80 1010.8
20260507022025 56 10 4.0 14.0 0.00 0.00 0.00 80 1010.9
20260507021523 56 286 8.0 13.0 0.00 0.00 0.00 80 1010.9
20260507021028 56 342 4.0 15.0 0.00 0.00 0.00 80 1010.9
20260507020546 56 347 4.0 15.0 0.00 0.00 0.00 80 1011.0
20260507020030 56 305 3.0 12.0 0.00 0.00 0.00 80 1010.9
20260507015519 56 5 4.0 12.0 0.00 0.00 0.00 80 1011.1
20260507015029 56 74 7.0 11.0 0.00 0.00 0.00 80 1011.1
20260507014527 56 309 6.0 15.0 0.00 0.00 0.00 80 1011.1
20260507014012 56 346 6.0 15.0 0.00 0.00 0.00 80 1011.2
20260507013526 56 355 2.0 10.0 0.00 0.00 0.00 80 1011.3
20260507013024 56 307 3.0 7.0 0.00 0.00 0.00 80 1011.4
20260507012547 56 359 4.0 11.0 0.00 0.00 0.00 80 1011.4
20260507012024 56 323 5.0 14.0 0.00 0.00 0.00 80 1011.5
20260507011536 56 288 8.0 14.0 0.00 0.00 0.00 80 1011.5
20260507011014 56 301 4.0 8.0 0.00 0.00 0.00 79 1011.5
20260507010539 56 331 3.0 9.0 0.00 0.00 0.00 79 1011.5
20260507010017 56 352 4.0 9.0 0.00 0.00 0.00 79 1011.6
20260507005533 56 38 3.0 11.0 0.00 0.00 0.00 79 1011.5
20260507005018 56 302 6.0 12.0 0.00 0.00 0.00 79 1011.6
20260507004515 56 31 5.0 12.0 0.00 0.00 0.00 79 1011.6
20260507004020 56 14 5.0 8.0 0.00 0.00 0.00 79 1011.6
20260507003525 56 350 3.0 9.0 0.00 0.00 0.00 79 1011.6
20260507003028 56 45 3.0 9.0 0.00 0.00 0.00 79 1011.6
20260507002526 56 345 4.0 10.0 0.00 0.00 0.00 79 1011.6
20260507002024 56 8 4.0 11.0 0.00 0.00 0.00 79 1011.7
20260507001511 56 16 6.0 11.0 0.00 0.00 0.00 79 1011.7
20260507001030 56 28 6.0 12.0 0.00 0.00 0.00 79 1011.7
20260507000535 56 15 7.0 12.0 0.00 0.00 0.00 79 1011.7
20260506235511 56 13 5.0 11.0 0.00 0.00 0.00 78 1011.8
20260506235030 57 35 7.0 11.0 0.00 0.00 0.00 78 1011.8
20260506234535 57 317 5.0 11.0 0.00 0.00 0.00 78 1011.8
20260506234014 57 338 6.0 12.0 0.00 0.00 0.00 78 1011.9
20260506233046 57 22 5.0 14.0 0.00 0.00 0.00 79 1012.0
20260506232514 57 87 4.0 14.0 0.00 0.00 0.00 79 1012.0
20260506232019 57 324 3.0 11.0 0.00 0.00 0.00 78 1011.9
20260506231517 57 28 3.0 11.0 0.00 0.00 0.00 78 1011.9
20260506231103 57 24 4.0 12.0 0.00 0.00 0.00 78 1011.8
20260506230523 57 22 5.0 10.0 0.00 0.00 0.00 78 1011.8
20260506230020 57 309 2.0 15.0 0.00 0.00 0.00 78 1011.8
20260506225510 57 345 6.0 15.0 0.00 0.00 0.00 78 1011.6
20260506225022 57 11 6.0 19.0 0.00 0.00 0.00 78 1011.7
20260506224520 57 337 10.0 19.0 0.00 0.00 0.00 78 1011.7
20260506224030 57 335 6.0 20.0 0.00 0.00 0.00 78 1011.7
20260506223514 57 322 10.0 20.0 0.00 0.00 0.00 79 1011.6
20260506223027 57 358 8.0 22.0 0.00 0.00 0.00 79 1011.7
20260506222518 57 342 15.0 22.0 0.00 0.00 0.00 79 1011.6
20260506222015 57 328 12.0 23.0 0.00 0.00 0.00 79 1011.7
20260506221521 57 336 9.0 23.0 0.00 0.00 0.00 79 1011.8
20260506221045 57 304 9.0 21.0 0.00 0.00 0.00 79 1011.8
20260506220550 57 357 11.0 21.0 0.00 0.00 0.00 79 1011.8
20260506220027 57 7 11.0 21.0 0.00 0.00 0.00 79 1011.9
20260506215524 57 300 9.0 21.0 0.00 0.00 0.00 78 1011.9
20260506215049 57 341 13.0 23.0 0.00 0.00 0.00 78 1011.9
20260506214526 57 338 11.0 23.0 0.00 0.00 0.00 78 1011.9
20260506214031 57 12 12.0 23.0 0.00 0.00 0.00 78 1011.9
20260506213536 57 349 15.0 23.0 0.00 0.00 0.00 78 1012.0
20260506213012 58 322 10.0 21.0 0.00 0.00 0.00 78 1012.0
20260506212529 58 340 11.0 24.0 0.00 0.00 0.00 78 1011.9
20260506212026 58 332 14.0 25.0 0.00 0.00 0.00 77 1011.8
20260506211528 58 341 15.0 25.0 0.00 0.00 0.00 77 1011.8
20260506211026 58 340 15.0 21.0 0.00 0.00 0.00 76 1011.9
20260506210531 58 359 10.0 21.0 0.00 0.00 0.00 76 1011.9
20260506210049 58 329 15.0 25.0 0.00 0.00 0.00 76 1011.8
20260506205544 58 327 13.0 25.0 0.00 0.00 0.00 76 1011.7
20260506205028 58 318 12.0 20.0 0.00 0.00 0.00 75 1011.8
20260506204526 58 355 13.0 22.0 0.00 0.00 0.00 75 1011.7
20260506204024 58 328 13.0 22.0 0.00 0.00 0.00 75 1011.7
20260506203528 58 320 12.0 21.0 0.00 0.00 0.00 75 1011.7
20260506202614 59 290 12.0 21.0 0.00 0.00 0.00 74 1011.6
20260506202034 59 330 14.0 21.0 0.00 0.00 0.00 74 1011.6
20260506201511 59 330 13.0 21.0 0.00 0.00 0.00 73 1011.6
20260506201009 59 323 15.0 21.0 0.00 0.00 0.00 73 1011.5
20260506200514 59 349 15.0 21.0 0.00 0.00 0.00 72 1011.5
20260506200012 59 10 12.0 21.0 0.00 0.00 0.00 72 1011.5
20260506195511 59 322 12.0 28.0 0.00 0.00 0.00 71 1011.6
20260506195016 60 338 15.0 28.0 0.00 0.00 0.00 70 1011.4
20260506194035 60 304 12.0 22.0 0.00 0.00 0.00 69 1011.5
20260506193520 60 320 10.0 22.0 0.00 0.00 0.00 68 1011.5
20260506193018 60 350 10.0 22.0 0.00 0.00 0.00 68 1011.4
20260506192514 60 5 12.0 24.0 0.00 0.00 0.00 67 1011.3
20260506192020 61 305 13.0 24.0 0.00 0.00 0.00 67 1011.2
20260506191519 61 311 11.0 20.0 0.00 0.00 0.00 67 1011.2
20260506191024 61 345 11.0 25.0 0.00 0.00 0.00 66 1011.3
20260506190610 61 359 11.0 22.0 0.00 0.00 0.00 67 1011.3
20260506185517 62 343 9.0 22.0 0.00 0.00 0.00 68 1011.3
20260506185013 62 336 12.0 19.0 0.00 0.00 0.00 66 1011.4
20260506184511 62 9 11.0 18.0 0.00 0.00 0.00 66 1011.3
20260506184039 62 347 11.0 18.0 0.00 0.00 0.00 66 1011.2
20260506183522 63 354 9.0 19.0 0.00 0.00 0.00 66 1011.2
20260506183028 63 335 13.0 19.0 0.00 0.00 0.00 66 1011.1
20260506182545 63 190 11.0 20.0 0.00 0.00 0.00 66 1011.2
20260506182022 63 190 15.0 20.0 0.00 0.00 0.00 66 1011.2
20260506181526 63 190 16.0 20.0 0.00 0.00 0.00 65 1011.1
20260506181031 63 190 14.0 21.0 0.00 0.00 0.00 65 1011.2
20260506180516 63 190 10.0 21.0 0.00 0.00 0.00 65 1011.1
20260506180014 63 190 14.0 21.0 0.00 0.00 0.00 64 1011.2
20260506175516 63 190 13.0 22.0 0.00 0.00 0.00 64 1011.2
20260506175014 64 190 15.0 22.0 0.00 0.00 0.00 64 1011.2
20260506174512 64 190 14.0 20.0 0.00 0.00 0.00 63 1011.2
20260506174017 64 332 13.0 21.0 0.00 0.00 0.00 62 1011.3
20260506173509 64 319 12.0 20.0 0.00 0.00 0.00 59 1011.3
20260506173023 65 356 12.0 20.0 0.00 0.00 0.00 59 1011.3
20260506172519 65 334 10.0 23.0 0.00 0.00 0.00 59 1011.3
20260506172124 65 329 13.0 22.0 0.00 0.00 0.00 57 1011.4
20260506171523 65 313 14.0 19.0 0.00 0.00 0.00 56 1011.4
20260506171020 65 346 10.0 17.0 0.00 0.00 0.00 58 1011.4
20260506170519 65 12 9.0 21.0 0.00 0.00 0.00 59 1011.4
20260506170030 65 348 11.0 21.0 0.00 0.00 0.00 58 1011.5
20260506165519 65 332 9.0 16.0 0.00 0.00 0.00 58 1011.6
20260506165031 65 24 11.0 19.0 0.00 0.00 0.00 59 1011.6
20260506164530 65 334 14.0 19.0 0.00 0.00 0.00 59 1011.7
20260506164042 65 288 9.0 18.0 0.00 0.00 0.00 60 1011.6
20260506163519 65 295 9.0 23.0 0.00 0.00 0.00 61 1011.6
20260506163024 65 305 15.0 23.0 0.00 0.00 0.00 60 1011.6
20260506162556 66 352 12.0 21.0 0.00 0.00 0.00 59 1011.6
20260506162018 65 292 11.0 23.0 0.00 0.00 0.00 59 1011.6
20260506161036 66 349 17.0 25.0 0.00 0.00 0.00 58 1011.6
20260506160515 65 342 11.0 20.0 0.00 0.00 0.00 59 1011.6
20260506160041 65 329 14.0 20.0 0.00 0.00 0.00 59 1011.6
20260506155535 66 332 8.0 24.0 0.00 0.00 0.00 59 1011.7
20260506155012 65 330 12.0 24.0 0.00 0.00 0.00 60 1011.7
20260506154025 66 307 13.0 19.0 0.00 0.00 0.00 59 1011.8
20260506153509 66 316 11.0 22.0 0.00 0.00 0.00 60 1011.8
20260506153035 66 344 14.0 22.0 0.00 0.00 0.00 60 1011.8
20260506152523 66 286 14.0 22.0 0.00 0.00 0.00 60 1011.8
20260506152022 66 344 10.0 21.0 0.00 0.00 0.00 60 1011.9
20260506151527 66 301 8.0 22.0 0.00 0.00 0.00 61 1012.0
20260506151026 65 1 14.0 21.0 0.00 0.00 0.00 61 1012.0
20260506150529 65 322 14.0 23.0 0.00 0.00 0.00 61 1012.0
20260506150028 66 347 16.0 21.0 0.00 0.00 0.00 61 1012.2
20260506145522 65 2 6.0 20.0 0.00 0.00 0.00 62 1012.3
20260506145011 65 190 13.0 21.0 0.00 0.00 0.00 61 1012.3
20260506144518 65 190 11.0 21.0 0.00 0.00 0.00 62 1012.5
20260506144014 66 347 12.0 21.0 0.00 0.00 0.00 61 1012.4
20260506143523 66 306 11.0 20.0 0.00 0.00 0.00 61 1012.4
20260506143017 66 343 13.0 20.0 0.00 0.00 0.00 61 1012.5
20260506142512 66 318 8.0 16.0 0.00 0.00 0.00 60 1012.6
20260506142009 65 313 7.0 18.0 0.00 0.00 0.00 61 1012.6
20260506141537 65 190 12.0 19.0 0.00 0.00 0.00 61 1012.7
20260506141014 65 190 13.0 19.0 0.00 0.00 0.00 61 1012.7
20260506140511 65 343 12.0 18.0 0.00 0.00 0.00 63 1012.7
20260506140018 65 330 10.0 15.0 0.00 0.00 0.00 63 1012.8
20260506135535 65 329 9.0 16.0 0.00 0.00 0.00 63 1012.9
20260506135030 65 190 9.0 19.0 0.00 0.00 0.00 62 1012.9
20260506134522 65 299 6.0 0.0 0.00 0.00 0.00 63 1012.9
20260506134043 65 334 4.0 13.0 0.00 0.00 0.00 63 1013.0
20260506133547 64 190 8.0 16.0 0.00 0.00 0.00 63 1013.0
20260506133118 64 190 7.0 16.0 0.00 0.00 0.00 63 1013.2
20260506132528 64 306 10.0 16.0 0.00 0.00 0.00 62 1013.2
20260506132013 64 344 10.0 19.0 0.00 0.00 0.00 64 1013.2
20260506131526 64 190 11.0 19.0 0.00 0.00 0.00 64 1013.2
20260506131044 64 311 8.0 18.0 0.00 0.00 0.00 64 1013.2
20260506130528 65 320 12.0 17.0 0.00 0.00 0.00 62 1013.4
20260506130054 65 14 12.0 17.0 0.00 0.00 0.00 63 1013.3
20260506125519 65 319 9.0 17.0 0.00 0.00 0.00 64 1013.3
20260506124011 63 5 8.0 18.0 0.00 0.00 0.00 66 1013.6
20260506123515 63 341 13.0 18.0 0.00 0.00 0.00 65 1013.8
20260506123013 63 348 10.0 16.0 0.00 0.00 0.00 66 1013.9
20260506122530 63 190 11.0 19.0 0.00 0.00 0.00 67 1013.9
20260506122014 64 190 15.0 19.0 0.00 0.00 0.00 65 1014.0
20260506121512 64 312 13.0 18.0 0.00 0.00 0.00 65 1014.0
20260506121015 64 6 6.0 18.0 0.00 0.00 0.00 65 1014.0
20260506120515 64 262 6.0 20.0 0.00 0.00 0.00 66 1014.1
20260506120021 63 309 12.0 20.0 0.00 0.00 0.00 66 1014.1
20260506115529 63 345 13.0 20.0 0.00 0.00 0.00 66 1014.2
20260506115013 63 306 14.0 20.0 0.00 0.00 0.00 67 1014.2
20260506114011 63 322 13.0 19.0 0.00 0.00 0.00 68 1014.2
20260506113518 64 334 10.0 16.0 0.00 0.00 0.00 68 1014.3
20260506113014 63 336 5.0 20.0 0.00 0.00 0.00 69 1014.2
20260506112532 63 334 13.0 20.0 0.00 0.00 0.00 69 1014.2
20260506112010 62 334 12.0 22.0 0.00 0.00 0.00 70 1014.3
20260506111531 63 4 13.0 22.0 0.00 0.00 0.00 70 1014.3
20260506111017 62 316 6.0 20.0 0.00 0.00 0.00 70 1014.3
20260506110513 62 335 13.0 20.0 0.00 0.00 0.00 72 1014.3
20260506110020 62 348 15.0 23.0 0.00 0.00 0.00 71 1014.4
20260506105537 62 342 14.0 21.0 0.00 0.00 0.00 70 1014.5
20260506105023 62 328 14.0 20.0 0.00 0.00 0.00 70 1014.4
20260506104522 62 323 13.0 23.0 0.00 0.00 0.00 71 1014.4
20260506104021 62 345 16.0 23.0 0.00 0.00 0.00 71 1014.4
20260506103527 62 344 10.0 19.0 0.00 0.00 0.00 69 1014.3
20260506103053 62 17 10.0 17.0 0.00 0.00 0.00 69 1014.4
20260506102522 63 190 11.0 17.0 0.00 0.00 0.00 67 1014.4
20260506102021 63 349 10.0 14.0 0.00 0.00 0.00 64 1014.4
20260506101527 63 6 8.0 16.0 0.00 0.00 0.00 62 1014.5
20260506101026 63 333 7.0 16.0 0.00 0.00 0.00 64 1014.5
20260506100532 63 320 4.0 10.0 0.00 0.00 0.00 65 1014.5
20260506100031 63 340 5.0 13.0 0.00 0.00 0.00 66 1014.5
20260506095527 63 342 4.0 13.0 0.00 0.00 0.00 66 1014.5
20260506095025 63 52 4.0 12.0 0.00 0.00 0.00 66 1014.6
20260506094531 62 17 4.0 14.0 0.00 0.00 0.00 67 1014.6
20260506094038 62 34 8.0 14.0 0.00 0.00 0.00 66 1014.6
20260506093536 62 360 5.0 14.0 0.00 0.00 0.00 67 1014.6
20260506093020 61 106 10.0 17.0 0.00 0.00 0.00 68 1014.5
20260506092529 62 42 11.0 17.0 0.00 0.00 0.00 68 1014.6
20260506092035 62 94 3.0 11.0 0.00 0.00 0.00 69 1014.6
20260506091029 61 317 5.0 13.0 0.00 0.00 0.00 69 1014.6
20260506090534 62 326 5.0 14.0 0.00 0.00 0.00 69 1014.5
20260506090011 62 3 7.0 14.0 0.00 0.00 0.00 69 1014.6
20260506085529 62 353 4.0 11.0 0.00 0.00 0.00 70 1014.5
20260506085027 61 29 5.0 11.0 0.00 0.00 0.00 71 1014.6
20260506084526 61 72 4.0 11.0 0.00 0.00 0.00 73 1014.6
20260506083027 60 271 5.0 12.0 0.00 0.00 0.00 76 1014.7
20260506082530 60 28 6.0 13.0 0.00 0.00 0.00 76 1014.7
20260506082049 59 300 5.0 10.0 0.00 0.00 0.00 77 1014.7
20260506081535 59 332 5.0 10.0 0.00 0.00 0.00 77 1014.8
20260506081012 59 295 6.0 10.0 0.00 0.00 0.00 77 1014.8
20260506080512 59 190 4.0 12.0 0.00 0.00 0.00 78 1014.9
20260506073025 58 39 2.0 7.0 0.00 0.00 0.00 79 1014.8
20260506072514 58 20 1.0 4.0 0.00 0.00 0.00 80 1014.8
20260506072021 58 32 1.0 6.0 0.00 0.00 0.00 80 1014.8
20260506071520 57 12 4.0 7.0 0.00 0.00 0.00 80 1014.8
20260506071026 57 76 2.0 11.0 0.00 0.00 0.00 81 1014.9
20260506070514 57 39 6.0 11.0 0.00 0.00 0.00 81 1014.9
20260506062012 55 348 0.0 8.0 0.00 0.00 0.00 83 1014.8
20260506061510 55 349 4.0 8.0 0.00 0.00 0.00 83 1014.7
20260506061038 55 343 3.0 8.0 0.00 0.00 0.00 83 1014.7